Location: Leuk
(46.3174°N, 7.6341°E)
Time: 14:38:30
(UTC+00:00)

Cosmos 2227 Rocket - Pass Details

Date: 09 March 2021
Orbit: 839 x 845 km, 71.0° (Epoch: 14 April)

Event Time Altitude Azimuth Distance (km) Brightness Sun altitude
Rises 04:19:48 0° 172° (S) 3,387 5.3 -17.0°
Reaches altitude 10° 04:22:32 10° 161° (SSE) 2,458 4.7 -16.5°
Maximum altitude 04:27:17 29° 103° (ESE) 1,515 4.2 -15.7°
Drops below altitude 10° 04:32:03 10° 46° (NE) 2,474 5.5 -14.9°
Sets 04:34:48 0° 36° (NE) 3,414 6.1 -14.4°
